{"data":{"norad_id":64815,"epoch":"2026-09-20T13:01:46.264512Z","epoch_age_seconds":120513,"freshness":"FRESH","line1":"1 64815U 25150AB  26263.54289658  .00004091  00000+0  35038-3 0  9998","line2":"2 64815  70.0026   3.1674 0003373 271.2397  88.8376 14.98334876 65700","mean_motion":14.98334876,"eccentricity":0.0003373,"inclination_deg":70.0026,"raan_deg":3.1674,"arg_perigee_deg":271.2397,"mean_anomaly_deg":88.8376,"bstar":0.00035038,"rev_number":6570,"period_min":96.106686366686,"perigee_km":569.69651738142,"apogee_km":574.38510733364,"semimajor_km":6950.1778123575,"source":"CELESTRAK","updated_at":"2026-09-21T09:00:35.447874Z"}}